• In Portugal
  • List of Countries
  • For 7 days
  • Water Temperature
  • Satellite Maps
  • Weather Map
  • Weather Widgets
  • user-avatar
    Login

    Hourly Weather Kruszki

    Today, 18 October, Thursday

    Time Temperature Precipitation Wind Pressure Humidity
    00:00 +10°C° 0 mm 2 mps 745 mmHg 67%
    01:00 +10°C° 0 mm 2 mps 745 mmHg 69%
    02:00 +9°C° 0 mm 2 mps 745 mmHg 74%
    03:00 +9°C° 0 mm 2 mps 744 mmHg 77%
    04:00 +8°C° 0 mm 2 mps 744 mmHg 79%
    05:00 +8°C° 0 mm 2 mps 744 mmHg 82%
    06:00 +8°C° 0 mm 2 mps 744 mmHg 83%
    07:00 +8°C° 0 mm 2 mps 744 mmHg 84%
    08:00 +8°C° 0 mm 2 mps 744 mmHg 84%
    09:00 +10°C° 0 mm 2 mps 743 mmHg 76%
    10:00 +13°C° 0 mm 2 mps 743 mmHg 68%
    11:00 +15°C° 0 mm 2 mps 743 mmHg 60%
    12:00 +16°C° 0 mm 2 mps 743 mmHg 56%
    13:00 +17°C° 0 mm 2 mps 743 mmHg 52%
    14:00 +18°C° 0 mm 2 mps 743 mmHg 48%
    15:00 +18°C° 0 mm 1 mps 743 mmHg 52%
    16:00 +16°C° 0 mm 1 mps 742 mmHg 56%
    17:00 +15°C° 0 mm 1 mps 742 mmHg 61%
    18:00 +14°C° 0 mm 1 mps 742 mmHg 63%
    19:00 +13°C° 0 mm 1 mps 742 mmHg 66%
    20:00 +12°C° 0 mm 1 mps 742 mmHg 69%
    21:00 +12°C° 0 mm 1 mps 742 mmHg 71%
    22:00 +12°C° 0 mm 1 mps 742 mmHg 72%
    23:00 +11°C° 0 mm 1 mps 742 mmHg 74%

    Tomorrow, 19 October, Friday

    Time Temperature Precipitation Wind Pressure Humidity
    00:00 +11°C° 0 mm 1 mps 742 mmHg 76%
    01:00 +11°C° 0 mm 1 mps 743 mmHg 79%
    02:00 +10°C° 0 mm 1 mps 743 mmHg 82%
    03:00 +10°C° 0 mm 1 mps 743 mmHg 85%
    04:00 +8°C° 0 mm 2 mps 743 mmHg 87%
    05:00 +8°C° 0 mm 2 mps 743 mmHg 90%
    06:00 +8°C° 0 mm 2 mps 743 mmHg 91%
    07:00 +8°C° 0 mm 2 mps 743 mmHg 93%
    08:00 +8°C° 0 mm 2 mps 744 mmHg 94%
    09:00 +9°C° 0 mm 2 mps 744 mmHg 90%
    10:00 +10°C° 0 mm 2 mps 744 mmHg 85%
    11:00 +12°C° 0 mm 2 mps 744 mmHg 81%
    12:00 +12°C° 0 mm 2 mps 745 mmHg 79%
    13:00 +13°C° 0 mm 2 mps 745 mmHg 78%
    14:00 +13°C° 0 mm 2 mps 745 mmHg 76%
    15:00 +12°C° 0 mm 2 mps 745 mmHg 77%
    16:00 +10°C° 0 mm 2 mps 745 mmHg 77%
    17:00 +10°C° 0 mm 2 mps 745 mmHg 77%
    18:00 +9°C° 0 mm 2 mps 745 mmHg 80%
    19:00 +9°C° 0 mm 1 mps 746 mmHg 83%
    20:00 +8°C° 0 mm 1 mps 746 mmHg 86%
    21:00 +7°C° 0 mm 1 mps 746 mmHg 87%
    22:00 +7°C° 0 mm 1 mps 746 mmHg 89%
    23:00 +6°C° 0 mm 1 mps 746 mmHg 90%

    Day after tomorrow, 20 October, Saturday

    Time Temperature Precipitation Wind Pressure Humidity
    00:00 +6°C° 0 mm 1 mps 746 mmHg 91%
    01:00 +6°C° 0 mm 1 mps 746 mmHg 91%
    02:00 +5°C° 0 mm 1 mps 746 mmHg 92%
    03:00 +5°C° 0 mm 1 mps 746 mmHg 92%
    04:00 +5°C° 0 mm 1 mps 746 mmHg 93%
    05:00 +5°C° 0 mm 1 mps 746 mmHg 93%
    06:00 +5°C° 0 mm 1 mps 746 mmHg 93%
    07:00 +4°C° 0 mm 2 mps 747 mmHg 93%
    08:00 +4°C° 0 mm 2 mps 747 mmHg 93%
    09:00 +6°C° 0 mm 2 mps 747 mmHg 85%
    10:00 +8°C° 0 mm 2 mps 747 mmHg 78%
    11:00 +9°C° 0 mm 3 mps 747 mmHg 70%
    12:00 +10°C° 0 mm 3 mps 747 mmHg 69%
    13:00 +10°C° 0 mm 4 mps 747 mmHg 68%
    14:00 +11°C° 0 mm 4 mps 747 mmHg 67%
    15:00 +10°C° 0 mm 4 mps 747 mmHg 69%
    16:00 +10°C° 0 mm 4 mps 746 mmHg 71%
    17:00 +10°C° 0 mm 4 mps 746 mmHg 73%
    18:00 +8°C° 0 mm 4 mps 746 mmHg 74%
    19:00 +8°C° 0 mm 4 mps 746 mmHg 76%
    20:00 +8°C° 0 mm 5 mps 746 mmHg 77%
    21:00 +7°C° 0.1 mm 4 mps 746 mmHg 81%
    22:00 +7°C° 0.1 mm 4 mps 746 mmHg 85%
    23:00 +6°C° 0.1 mm 4 mps 746 mmHg 90%

    21 October, Sunday

    Time Temperature Precipitation Wind Pressure Humidity
    00:00 +6°C° 0 mm 4 mps 746 mmHg 91%
    01:00 +5°C° 0 mm 3 mps 746 mmHg 92%
    02:00 +5°C° 0 mm 3 mps 746 mmHg 93%
    03:00 +4°C° 0 mm 3 mps 746 mmHg 93%
    04:00 +4°C° 0 mm 3 mps 746 mmHg 93%
    05:00 +3°C° 0 mm 3 mps 746 mmHg 93%
    06:00 +4°C° 0 mm 3 mps 747 mmHg 92%
    07:00 +4°C° 0 mm 3 mps 747 mmHg 92%
    08:00 +4°C° 0 mm 3 mps 747 mmHg 91%
    09:00 +5°C° 0 mm 3 mps 747 mmHg 83%
    10:00 +8°C° 0 mm 3 mps 748 mmHg 75%
    11:00 +9°C° 0 mm 3 mps 748 mmHg 67%
    12:00 +10°C° 0 mm 3 mps 748 mmHg 64%
    13:00 +11°C° 0 mm 3 mps 748 mmHg 60%
    14:00 +11°C° 0 mm 3 mps 748 mmHg 57%
    15:00 +10°C° 0 mm 2 mps 747 mmHg 62%
    16:00 +10°C° 0 mm 2 mps 747 mmHg 66%
    17:00 +10°C° 0 mm 1 mps 747 mmHg 70%
    18:00 +9°C° 0 mm 1 mps 747 mmHg 74%
    19:00 +7°C° 0 mm 2 mps 747 mmHg 78%
    20:00 +7°C° 0 mm 2 mps 747 mmHg 81%
    21:00 +7°C° 0 mm 2 mps 747 mmHg 83%
    22:00 +7°C° 0 mm 2 mps 747 mmHg 84%
    23:00 +7°C° 0 mm 3 mps 747 mmHg 86%

    22 October, Monday

    Time Temperature Precipitation Wind Pressure Humidity
    00:00 +8°C° 0 mm 3 mps 746 mmHg 86%
    01:00 +8°C° 0 mm 3 mps 746 mmHg 86%
    02:00 +7°C° 0 mm 4 mps 746 mmHg 86%
    03:00 +8°C° 0.1 mm 4 mps 745 mmHg 86%
    04:00 +8°C° 0.1 mm 4 mps 745 mmHg 86%
    05:00 +8°C° 0.1 mm 4 mps 745 mmHg 85%
    06:00 +8°C° 0 mm 5 mps 744 mmHg 84%
    07:00 +8°C° 0 mm 5 mps 744 mmHg 83%
    08:00 +8°C° 0 mm 5 mps 743 mmHg 81%
    09:00 +9°C° 0.1 mm 5 mps 743 mmHg 77%
    10:00 +9°C° 0.1 mm 6 mps 743 mmHg 72%
    11:00 +10°C° 0.1 mm 6 mps 743 mmHg 68%
    12:00 +9°C° 0.3 mm 6 mps 743 mmHg 71%
    13:00 +9°C° 0.3 mm 5 mps 743 mmHg 75%
    14:00 +8°C° 0.3 mm 5 mps 743 mmHg 79%
    15:00 +8°C° 0.3 mm 5 mps 742 mmHg 80%
    16:00 +8°C° 0.3 mm 4 mps 742 mmHg 82%
    17:00 +8°C° 0.3 mm 4 mps 742 mmHg 83%
    18:00 +8°C° 0 mm 3 mps 742 mmHg 85%
    19:00 +7°C° 0 mm 3 mps 742 mmHg 87%
    20:00 +5°C° 0 mm 3 mps 742 mmHg 89%
    21:00 +7°C° 0 mm 3 mps 742 mmHg 88%
    22:00 +7°C° 0 mm 3 mps 742 mmHg 86%
    23:00 +7°C° 0 mm 3 mps 741 mmHg 85%

    23 October, Tuesday

    Time Temperature Precipitation Wind Pressure Humidity
    00:00 +5°C° 0 mm 3 mps 741 mmHg 83%
    01:00 +5°C° 0 mm 3 mps 741 mmHg 82%
    02:00 +5°C° 0 mm 3 mps 740 mmHg 80%
    03:00 +5°C° 0.1 mm 4 mps 740 mmHg 82%
    04:00 +4°C° 0.1 mm 4 mps 740 mmHg 83%
    05:00 +4°C° 0.1 mm 4 mps 739 mmHg 84%
    06:00 +4°C° 0.1 mm 4 mps 739 mmHg 84%
    07:00 +4°C° 0.1 mm 4 mps 738 mmHg 84%
    08:00 +3°C° 0.1 mm 4 mps 738 mmHg 84%
    09:00 +5°C° 0 mm 5 mps 738 mmHg 78%
    10:00 +6°C° 0 mm 5 mps 738 mmHg 72%
    11:00 +7°C° 0 mm 5 mps 738 mmHg 66%
    12:00 +7°C° 0 mm 5 mps 737 mmHg 63%
    13:00 +7°C° 0 mm 5 mps 737 mmHg 60%
    14:00 +8°C° 0 mm 5 mps 737 mmHg 58%
    15:00 +7°C° 0 mm 4 mps 736 mmHg 62%
    16:00 +7°C° 0 mm 3 mps 736 mmHg 67%
    17:00 +7°C° 0 mm 2 mps 736 mmHg 71%
    18:00 +6°C° 0.6 mm 2 mps 735 mmHg 75%
    19:00 +5°C° 0.6 mm 3 mps 735 mmHg 79%
    20:00 +5°C° 0.6 mm 3 mps 735 mmHg 83%
    21:00 +5°C° 1 mm 3 mps 735 mmHg 83%
    22:00 +5°C° 1 mm 4 mps 735 mmHg 83%
    23:00 +5°C° 1 mm 4 mps 734 mmHg 83%
    Show more